Year,Month,Day,Hour,Minute,Value (Times are PST for insolation in W/m^2)
2016,11,12,00,00,0.00
2016,11,12,00,01,0.00
2016,11,12,00,02,0.00
2016,11,12,00,03,0.00
2016,11,12,00,04,0.00
2016,11,12,00,05,0.00
2016,11,12,00,06,0.00
2016,11,12,00,07,0.00
2016,11,12,00,08,0.00
2016,11,12,00,09,0.00
2016,11,12,00,10,0.00
2016,11,12,00,11,0.00
2016,11,12,00,12,0.00
2016,11,12,00,13,0.00
2016,11,12,00,14,0.00
2016,11,12,00,15,0.00
2016,11,12,00,16,0.00
2016,11,12,00,17,0.00
2016,11,12,00,18,0.00
2016,11,12,00,19,0.00
2016,11,12,00,20,0.00
2016,11,12,00,21,0.00
2016,11,12,00,22,0.00
2016,11,12,00,23,0.00
2016,11,12,00,24,0.00
2016,11,12,00,25,0.00
2016,11,12,00,26,0.00
2016,11,12,00,27,0.00
2016,11,12,00,28,0.00
2016,11,12,00,29,0.00
2016,11,12,00,30,0.00
2016,11,12,00,31,0.00
2016,11,12,00,32,0.00
2016,11,12,00,33,0.00
2016,11,12,00,34,0.00
2016,11,12,00,35,0.00
2016,11,12,00,36,0.00
2016,11,12,00,37,0.00
2016,11,12,00,38,0.00
2016,11,12,00,39,0.00
2016,11,12,00,40,0.00
2016,11,12,00,41,0.00
2016,11,12,00,42,0.00
2016,11,12,00,43,0.00
2016,11,12,00,44,0.00
2016,11,12,00,45,0.00
2016,11,12,00,46,0.00
2016,11,12,00,47,0.00
2016,11,12,00,48,0.00
2016,11,12,00,49,0.00
2016,11,12,00,50,0.00
2016,11,12,00,51,0.00
2016,11,12,00,52,0.00
2016,11,12,00,53,0.00
2016,11,12,00,54,0.00
2016,11,12,00,55,0.00
2016,11,12,00,56,0.00
2016,11,12,00,57,0.00
2016,11,12,00,58,0.00
2016,11,12,00,59,0.00
2016,11,12,01,00,0.00
2016,11,12,01,01,0.00
2016,11,12,01,02,0.00
2016,11,12,01,03,0.00
2016,11,12,01,04,0.00
2016,11,12,01,05,0.00
2016,11,12,01,06,0.00
2016,11,12,01,07,0.00
2016,11,12,01,08,0.00
2016,11,12,01,09,0.00
2016,11,12,01,10,0.00
2016,11,12,01,11,0.00
2016,11,12,01,12,0.00
2016,11,12,01,13,0.00
2016,11,12,01,14,0.00
2016,11,12,01,15,0.00
2016,11,12,01,16,0.00
2016,11,12,01,17,0.00
2016,11,12,01,18,0.00
2016,11,12,01,19,0.00
2016,11,12,01,20,0.00
2016,11,12,01,21,0.00
2016,11,12,01,22,0.00
2016,11,12,01,23,0.00
2016,11,12,01,24,0.00
2016,11,12,01,25,0.00
2016,11,12,01,26,0.00
2016,11,12,01,27,0.00
2016,11,12,01,28,0.00
2016,11,12,01,29,0.00
2016,11,12,01,30,0.00
2016,11,12,01,31,0.00
2016,11,12,01,32,0.00
2016,11,12,01,33,0.00
2016,11,12,01,34,0.00
2016,11,12,01,35,0.00
2016,11,12,01,36,0.00
2016,11,12,01,37,0.00
2016,11,12,01,38,0.00
2016,11,12,01,39,0.00
2016,11,12,01,40,0.00
2016,11,12,01,41,0.00
2016,11,12,01,42,0.00
2016,11,12,01,43,0.00
2016,11,12,01,44,0.00
2016,11,12,01,45,0.00
2016,11,12,01,46,0.00
2016,11,12,01,47,0.00
2016,11,12,01,48,0.00
2016,11,12,01,49,0.00
2016,11,12,01,50,0.00
2016,11,12,01,51,0.00
2016,11,12,01,52,0.00
2016,11,12,01,53,0.00
2016,11,12,01,54,0.00
2016,11,12,01,55,0.00
2016,11,12,01,56,0.00
2016,11,12,01,57,0.00
2016,11,12,01,58,0.00
2016,11,12,01,59,0.00
2016,11,12,02,00,0.00
2016,11,12,02,01,0.00
2016,11,12,02,02,0.00
2016,11,12,02,03,0.00
2016,11,12,02,04,0.00
2016,11,12,02,05,0.00
2016,11,12,02,06,0.00
2016,11,12,02,07,0.00
2016,11,12,02,08,0.00
2016,11,12,02,09,0.00
2016,11,12,02,10,0.00
2016,11,12,02,11,0.00
2016,11,12,02,12,0.00
2016,11,12,02,13,0.00
2016,11,12,02,14,0.00
2016,11,12,02,15,0.00
2016,11,12,02,16,0.00
2016,11,12,02,17,0.00
2016,11,12,02,18,0.00
2016,11,12,02,19,0.00
2016,11,12,02,20,0.00
2016,11,12,02,21,0.00
2016,11,12,02,22,0.00
2016,11,12,02,23,0.00
2016,11,12,02,24,0.00
2016,11,12,02,25,0.00
2016,11,12,02,26,0.00
2016,11,12,02,27,0.00
2016,11,12,02,28,0.00
2016,11,12,02,29,0.00
2016,11,12,02,30,0.00
2016,11,12,02,31,0.00
2016,11,12,02,32,0.00
2016,11,12,02,33,0.00
2016,11,12,02,34,0.00
2016,11,12,02,35,0.00
2016,11,12,02,36,0.00
2016,11,12,02,37,0.00
2016,11,12,02,38,0.00
2016,11,12,02,39,0.00
2016,11,12,02,40,0.00
2016,11,12,02,41,0.00
2016,11,12,02,42,0.00
2016,11,12,02,43,0.00
2016,11,12,02,44,0.00
2016,11,12,02,45,0.00
2016,11,12,02,46,0.00
2016,11,12,02,47,0.00
2016,11,12,02,48,0.00
2016,11,12,02,49,0.00
2016,11,12,02,50,0.00
2016,11,12,02,51,0.00
2016,11,12,02,52,0.00
2016,11,12,02,53,0.00
2016,11,12,02,54,0.00
2016,11,12,02,55,0.00
2016,11,12,02,56,0.00
2016,11,12,02,57,0.00
2016,11,12,02,58,0.00
2016,11,12,02,59,0.00
2016,11,12,03,00,0.00
2016,11,12,03,01,0.00
2016,11,12,03,02,0.00
2016,11,12,03,03,0.00
2016,11,12,03,04,0.00
2016,11,12,03,05,0.00
2016,11,12,03,06,0.00
2016,11,12,03,07,0.00
2016,11,12,03,08,0.00
2016,11,12,03,09,0.00
2016,11,12,03,10,0.00
2016,11,12,03,11,0.00
2016,11,12,03,12,0.00
2016,11,12,03,13,0.00
2016,11,12,03,14,0.00
2016,11,12,03,15,0.00
2016,11,12,03,16,0.00
2016,11,12,03,17,0.00
2016,11,12,03,18,0.00
2016,11,12,03,19,0.00
2016,11,12,03,20,0.00
2016,11,12,03,21,0.00
2016,11,12,03,22,0.00
2016,11,12,03,23,0.00
2016,11,12,03,24,0.00
2016,11,12,03,25,0.00
2016,11,12,03,26,0.00
2016,11,12,03,27,0.00
2016,11,12,03,28,0.00
2016,11,12,03,29,0.00
2016,11,12,03,30,0.00
2016,11,12,03,31,0.00
2016,11,12,03,32,0.00
2016,11,12,03,33,0.00
2016,11,12,03,34,0.00
2016,11,12,03,35,0.00
2016,11,12,03,36,0.00
2016,11,12,03,37,0.00
2016,11,12,03,38,0.00
2016,11,12,03,39,0.00
2016,11,12,03,40,0.00
2016,11,12,03,41,0.00
2016,11,12,03,42,0.00
2016,11,12,03,43,0.00
2016,11,12,03,44,0.00
2016,11,12,03,45,0.00
2016,11,12,03,46,0.00
2016,11,12,03,47,0.00
2016,11,12,03,48,0.00
2016,11,12,03,49,0.00
2016,11,12,03,50,0.00
2016,11,12,03,51,0.00
2016,11,12,03,52,0.00
2016,11,12,03,53,0.00
2016,11,12,03,54,0.00
2016,11,12,03,55,0.00
2016,11,12,03,56,0.00
2016,11,12,03,57,0.00
2016,11,12,03,58,0.00
2016,11,12,03,59,0.00
2016,11,12,04,00,0.00
2016,11,12,04,01,0.00
2016,11,12,04,02,0.00
2016,11,12,04,03,0.00
2016,11,12,04,04,0.00
2016,11,12,04,05,0.00
2016,11,12,04,06,0.00
2016,11,12,04,07,0.00
2016,11,12,04,08,0.00
2016,11,12,04,09,0.00
2016,11,12,04,10,0.00
2016,11,12,04,11,0.00
2016,11,12,04,12,0.00
2016,11,12,04,13,0.00
2016,11,12,04,14,0.00
2016,11,12,04,15,0.00
2016,11,12,04,16,0.00
2016,11,12,04,17,0.00
2016,11,12,04,18,0.00
2016,11,12,04,19,0.00
2016,11,12,04,20,0.00
2016,11,12,04,21,0.00
2016,11,12,04,22,0.00
2016,11,12,04,23,0.00
2016,11,12,04,24,0.00
2016,11,12,04,25,0.00
2016,11,12,04,26,0.00
2016,11,12,04,27,0.00
2016,11,12,04,28,0.00
2016,11,12,04,29,0.00
2016,11,12,04,30,0.00
2016,11,12,04,31,0.00
2016,11,12,04,32,0.00
2016,11,12,04,33,0.00
2016,11,12,04,34,0.00
2016,11,12,04,35,0.00
2016,11,12,04,36,0.00
2016,11,12,04,37,0.00
2016,11,12,04,38,0.00
2016,11,12,04,39,0.00
2016,11,12,04,40,0.00
2016,11,12,04,41,0.00
2016,11,12,04,42,0.00
2016,11,12,04,43,0.00
2016,11,12,04,44,0.00
2016,11,12,04,45,0.00
2016,11,12,04,46,0.00
2016,11,12,04,47,0.00
2016,11,12,04,48,0.00
2016,11,12,04,49,0.00
2016,11,12,04,50,0.00
2016,11,12,04,51,0.00
2016,11,12,04,52,0.00
2016,11,12,04,53,0.00
2016,11,12,04,54,0.00
2016,11,12,04,55,0.00
2016,11,12,04,56,0.00
2016,11,12,04,57,0.00
2016,11,12,04,58,0.00
2016,11,12,04,59,0.00
2016,11,12,05,00,0.00
2016,11,12,05,01,0.00
2016,11,12,05,02,0.00
2016,11,12,05,03,0.00
2016,11,12,05,04,0.00
2016,11,12,05,05,0.00
2016,11,12,05,06,0.00
2016,11,12,05,07,0.00
2016,11,12,05,08,0.00
2016,11,12,05,09,0.00
2016,11,12,05,10,0.00
2016,11,12,05,11,0.00
2016,11,12,05,12,0.00
2016,11,12,05,13,0.00
2016,11,12,05,14,0.00
2016,11,12,05,15,0.00
2016,11,12,05,16,0.00
2016,11,12,05,17,0.00
2016,11,12,05,18,0.00
2016,11,12,05,19,0.00
2016,11,12,05,20,0.00
2016,11,12,05,21,0.00
2016,11,12,05,22,0.00
2016,11,12,05,23,0.00
2016,11,12,05,24,0.00
2016,11,12,05,25,0.00
2016,11,12,05,26,0.00
2016,11,12,05,27,0.00
2016,11,12,05,28,0.00
2016,11,12,05,29,0.00
2016,11,12,05,30,0.00
2016,11,12,05,31,0.00
2016,11,12,05,32,0.00
2016,11,12,05,33,0.00
2016,11,12,05,34,0.00
2016,11,12,05,35,0.00
2016,11,12,05,36,0.00
2016,11,12,05,37,0.00
2016,11,12,05,38,0.00
2016,11,12,05,39,0.00
2016,11,12,05,40,0.00
2016,11,12,05,41,0.00
2016,11,12,05,42,0.00
2016,11,12,05,43,0.00
2016,11,12,05,44,0.00
2016,11,12,05,45,0.00
2016,11,12,05,46,0.00
2016,11,12,05,47,0.00
2016,11,12,05,48,0.00
2016,11,12,05,49,0.00
2016,11,12,05,50,0.00
2016,11,12,05,51,0.00
2016,11,12,05,52,0.00
2016,11,12,05,53,0.00
2016,11,12,05,54,0.00
2016,11,12,05,55,0.00
2016,11,12,05,56,0.00
2016,11,12,05,57,0.00
2016,11,12,05,58,0.00
2016,11,12,05,59,0.00
2016,11,12,06,00,0.00
2016,11,12,06,01,0.00
2016,11,12,06,02,0.00
2016,11,12,06,03,0.00
2016,11,12,06,04,0.00
2016,11,12,06,05,0.00
2016,11,12,06,06,0.00
2016,11,12,06,07,0.00
2016,11,12,06,08,0.00
2016,11,12,06,09,0.00
2016,11,12,06,10,0.00
2016,11,12,06,11,0.00
2016,11,12,06,12,0.00
2016,11,12,06,13,0.00
2016,11,12,06,14,0.00
2016,11,12,06,15,0.00
2016,11,12,06,16,0.00
2016,11,12,06,17,0.00
2016,11,12,06,18,0.00
2016,11,12,06,19,0.00
2016,11,12,06,20,0.00
2016,11,12,06,21,0.00
2016,11,12,06,22,0.00
2016,11,12,06,23,0.00
2016,11,12,06,24,0.00
2016,11,12,06,25,0.00
2016,11,12,06,26,0.00
2016,11,12,06,27,0.00
2016,11,12,06,28,0.00
2016,11,12,06,29,0.00
2016,11,12,06,30,0.00
2016,11,12,06,31,0.00
2016,11,12,06,32,0.00
2016,11,12,06,33,0.00
2016,11,12,06,34,0.00
2016,11,12,06,35,0.00
2016,11,12,06,36,0.00
2016,11,12,06,37,0.00
2016,11,12,06,38,0.00
2016,11,12,06,39,0.00
2016,11,12,06,40,0.00
2016,11,12,06,41,0.00
2016,11,12,06,42,0.00
2016,11,12,06,43,0.00
2016,11,12,06,44,0.00
2016,11,12,06,45,0.00
2016,11,12,06,46,0.00
2016,11,12,06,47,0.00
2016,11,12,06,48,0.00
2016,11,12,06,49,0.00
2016,11,12,06,50,0.00
2016,11,12,06,51,0.00
2016,11,12,06,52,0.00
2016,11,12,06,53,0.00
2016,11,12,06,54,0.00
2016,11,12,06,55,0.00
2016,11,12,06,56,0.00
2016,11,12,06,57,0.00
2016,11,12,06,58,0.00
2016,11,12,06,59,0.00
2016,11,12,07,00,0.00
2016,11,12,07,01,0.00
2016,11,12,07,02,0.00
2016,11,12,07,03,0.00
2016,11,12,07,04,0.00
2016,11,12,07,05,0.00
2016,11,12,07,06,0.00
2016,11,12,07,07,0.00
2016,11,12,07,08,0.00
2016,11,12,07,09,0.00
2016,11,12,07,10,0.00
2016,11,12,07,11,0.00
2016,11,12,07,12,0.00
2016,11,12,07,13,0.00
2016,11,12,07,14,0.00
2016,11,12,07,15,0.00
2016,11,12,07,16,0.00
2016,11,12,07,17,0.00
2016,11,12,07,18,0.00
2016,11,12,07,19,0.00
2016,11,12,07,20,0.00
2016,11,12,07,21,0.00
2016,11,12,07,22,0.00
2016,11,12,07,23,0.00
2016,11,12,07,24,0.00
2016,11,12,07,25,0.00
2016,11,12,07,26,0.00
2016,11,12,07,27,0.00
2016,11,12,07,28,0.00
2016,11,12,07,29,0.00
2016,11,12,07,30,0.00
2016,11,12,07,31,0.00
2016,11,12,07,32,0.00
2016,11,12,07,33,0.00
2016,11,12,07,34,0.00
2016,11,12,07,35,0.00
2016,11,12,07,36,0.00
2016,11,12,07,37,0.00
2016,11,12,07,38,0.00
2016,11,12,07,39,1.20
2016,11,12,07,40,5.00
2016,11,12,07,41,5.00
2016,11,12,07,42,5.00
2016,11,12,07,43,5.00
2016,11,12,07,44,6.30
2016,11,12,07,45,7.00
2016,11,12,07,46,7.00
2016,11,12,07,47,7.00
2016,11,12,07,48,7.00
2016,11,12,07,49,7.00
2016,11,12,07,50,7.50
2016,11,12,07,51,9.00
2016,11,12,07,52,9.80
2016,11,12,07,53,11.40
2016,11,12,07,54,12.00
2016,11,12,07,55,13.30
2016,11,12,07,56,14.00
2016,11,12,07,57,15.60
2016,11,12,07,58,16.00
2016,11,12,07,59,17.90
2016,11,12,08,00,18.00
2016,11,12,08,01,18.20
2016,11,12,08,02,20.20
2016,11,12,08,03,23.70
2016,11,12,08,04,24.10
2016,11,12,08,05,23.00
2016,11,12,08,06,23.00
2016,11,12,08,07,21.60
2016,11,12,08,08,21.00
2016,11,12,08,09,24.60
2016,11,12,08,10,26.20
2016,11,12,08,11,30.30
2016,11,12,08,12,32.20
2016,11,12,08,13,33.00
2016,11,12,08,14,33.00
2016,11,12,08,15,34.00
2016,11,12,08,16,35.00
2016,11,12,08,17,35.00
2016,11,12,08,18,33.60
2016,11,12,08,19,33.00
2016,11,12,08,20,34.80
2016,11,12,08,21,35.00
2016,11,12,08,22,35.30
2016,11,12,08,23,36.60
2016,11,12,08,24,36.20
2016,11,12,08,25,39.00
2016,11,12,08,26,42.20
2016,11,12,08,27,47.70
2016,11,12,08,28,54.80
2016,11,12,08,29,55.20
2016,11,12,08,30,55.60
2016,11,12,08,31,61.40
2016,11,12,08,32,53.80
2016,11,12,08,33,60.50
2016,11,12,08,34,65.20
2016,11,12,08,35,78.20
2016,11,12,08,36,83.60
2016,11,12,08,37,72.50
2016,11,12,08,38,63.20
2016,11,12,08,39,73.70
2016,11,12,08,40,92.20
2016,11,12,08,41,97.00
2016,11,12,08,42,91.60
2016,11,12,08,43,79.10
2016,11,12,08,44,71.20
2016,11,12,08,45,89.70
2016,11,12,08,46,113.10
2016,11,12,08,47,112.40
2016,11,12,08,48,96.80
2016,11,12,08,49,89.00
2016,11,12,08,50,101.10
2016,11,12,08,51,124.20
2016,11,12,08,52,126.00
2016,11,12,08,53,123.20
2016,11,12,08,54,111.20
2016,11,12,08,55,103.40
2016,11,12,08,56,99.50
2016,11,12,08,57,95.90
2016,11,12,08,58,90.60
2016,11,12,08,59,90.50
2016,11,12,09,00,107.80
2016,11,12,09,01,141.40
2016,11,12,09,02,117.00
2016,11,12,09,03,101.00
2016,11,12,09,04,87.50
2016,11,12,09,05,107.10
2016,11,12,09,06,140.80
2016,11,12,09,07,203.80
2016,11,12,09,08,203.90
2016,11,12,09,09,186.20
2016,11,12,09,10,171.90
2016,11,12,09,11,148.90
2016,11,12,09,12,125.20
2016,11,12,09,13,132.80
2016,11,12,09,14,147.10
2016,11,12,09,15,141.80
2016,11,12,09,16,174.20
2016,11,12,09,17,176.80
2016,11,12,09,18,188.40
2016,11,12,09,19,214.50
2016,11,12,09,20,218.60
2016,11,12,09,21,234.30
2016,11,12,09,22,246.70
2016,11,12,09,23,277.70
2016,11,12,09,24,267.10
2016,11,12,09,25,217.90
2016,11,12,09,26,145.70
2016,11,12,09,27,128.40
2016,11,12,09,28,159.00
2016,11,12,09,29,186.70
2016,11,12,09,30,155.30
2016,11,12,09,31,154.50
2016,11,12,09,32,157.80
2016,11,12,09,33,131.40
2016,11,12,09,34,108.70
2016,11,12,09,35,102.00
2016,11,12,09,36,102.00
2016,11,12,09,37,108.30
2016,11,12,09,38,120.60
2016,11,12,09,39,148.00
2016,11,12,09,40,154.00
2016,11,12,09,41,165.70
2016,11,12,09,42,163.80
2016,11,12,09,43,191.60
2016,11,12,09,44,210.80
2016,11,12,09,45,221.30
2016,11,12,09,46,167.50
2016,11,12,09,47,140.50
2016,11,12,09,48,153.30
2016,11,12,09,49,186.20
2016,11,12,09,50,183.90
2016,11,12,09,51,197.00
2016,11,12,09,52,258.70
2016,11,12,09,53,226.40
2016,11,12,09,54,212.60
2016,11,12,09,55,179.60
2016,11,12,09,56,160.60
2016,11,12,09,57,159.20
2016,11,12,09,58,163.60
2016,11,12,09,59,179.40
2016,11,12,10,00,179.60
2016,11,12,10,01,189.60
2016,11,12,10,02,199.60
2016,11,12,10,03,207.40
2016,11,12,10,04,230.40
2016,11,12,10,05,280.50
2016,11,12,10,06,274.80
2016,11,12,10,07,222.60
2016,11,12,10,08,191.80
2016,11,12,10,09,179.60
2016,11,12,10,10,161.80
2016,11,12,10,11,155.10
2016,11,12,10,12,151.90
2016,11,12,10,13,151.00
2016,11,12,10,14,174.60
2016,11,12,10,15,187.80
2016,11,12,10,16,202.00
2016,11,12,10,17,202.10
2016,11,12,10,18,201.60
2016,11,12,10,19,208.90
2016,11,12,10,20,243.00
2016,11,12,10,21,213.40
2016,11,12,10,22,203.60
2016,11,12,10,23,188.70
2016,11,12,10,24,181.00
2016,11,12,10,25,183.10
2016,11,12,10,26,189.60
2016,11,12,10,27,188.90
2016,11,12,10,28,181.10
2016,11,12,10,29,175.40
2016,11,12,10,30,166.30
2016,11,12,10,31,157.40
2016,11,12,10,32,149.70
2016,11,12,10,33,146.10
2016,11,12,10,34,146.00
2016,11,12,10,35,146.00
2016,11,12,10,36,146.00
2016,11,12,10,37,144.40
2016,11,12,10,38,139.60
2016,11,12,10,39,135.40
2016,11,12,10,40,132.70
2016,11,12,10,41,129.00
2016,11,12,10,42,123.80
2016,11,12,10,43,121.30
2016,11,12,10,44,119.90
2016,11,12,10,45,117.70
2016,11,12,10,46,116.50
2016,11,12,10,47,118.90
2016,11,12,10,48,122.60
2016,11,12,10,49,127.20
2016,11,12,10,50,134.90
2016,11,12,10,51,145.50
2016,11,12,10,52,149.00
2016,11,12,10,53,149.00
2016,11,12,10,54,154.40
2016,11,12,10,55,156.10
2016,11,12,10,56,157.70
2016,11,12,10,57,155.80
2016,11,12,10,58,154.40
2016,11,12,10,59,152.20
2016,11,12,11,00,149.50
2016,11,12,11,01,145.80
2016,11,12,11,02,139.30
2016,11,12,11,03,130.70
2016,11,12,11,04,121.60
2016,11,12,11,05,113.70
2016,11,12,11,06,107.20
2016,11,12,11,07,104.20
2016,11,12,11,08,106.50
2016,11,12,11,09,112.50
2016,11,12,11,10,117.60
2016,11,12,11,11,120.50
2016,11,12,11,12,119.30
2016,11,12,11,13,113.40
2016,11,12,11,14,111.00
2016,11,12,11,15,112.60
2016,11,12,11,16,119.30
2016,11,12,11,17,125.10
2016,11,12,11,18,127.00
2016,11,12,11,19,127.00
2016,11,12,11,20,127.00
2016,11,12,11,21,127.40
2016,11,12,11,22,130.00
2016,11,12,11,23,135.90
2016,11,12,11,24,140.90
2016,11,12,11,25,142.00
2016,11,12,11,26,143.60
2016,11,12,11,27,145.80
2016,11,12,11,28,146.10
2016,11,12,11,29,149.90
2016,11,12,11,30,156.40
2016,11,12,11,31,167.10
2016,11,12,11,32,185.40
2016,11,12,11,33,202.20
2016,11,12,11,34,211.00
2016,11,12,11,35,211.00
2016,11,12,11,36,211.00
2016,11,12,11,37,211.00
2016,11,12,11,38,211.00
2016,11,12,11,39,217.60
2016,11,12,11,40,215.50
2016,11,12,11,41,241.00
2016,11,12,11,42,245.80
2016,11,12,11,43,276.60
2016,11,12,11,44,283.00
2016,11,12,11,45,226.40
2016,11,12,11,46,190.60
2016,11,12,11,47,171.80
2016,11,12,11,48,163.80
2016,11,12,11,49,160.30
2016,11,12,11,50,167.90
2016,11,12,11,51,180.40
2016,11,12,11,52,187.50
2016,11,12,11,53,187.20
2016,11,12,11,54,190.00
2016,11,12,11,55,190.00
2016,11,12,11,56,198.40
2016,11,12,11,57,204.00
2016,11,12,11,58,204.00
2016,11,12,11,59,436.00
2016,11,12,12,00,494.00
2016,11,12,12,01,498.90
2016,11,12,12,02,597.10
2016,11,12,12,03,646.90
2016,11,12,12,04,640.00
2016,11,12,12,05,476.80
2016,11,12,12,06,279.50
2016,11,12,12,07,325.80
2016,11,12,12,08,364.20
2016,11,12,12,09,387.00
2016,11,12,12,10,387.00
2016,11,12,12,11,387.00
2016,11,12,12,12,561.00
2016,11,12,12,13,507.80
2016,11,12,12,14,201.50
2016,11,12,12,15,173.50
2016,11,12,12,16,138.20
2016,11,12,12,17,135.30
2016,11,12,12,18,150.60
2016,11,12,12,19,163.20
2016,11,12,12,20,180.80
2016,11,12,12,21,226.00
2016,11,12,12,22,253.10
2016,11,12,12,23,318.90
2016,11,12,12,24,319.40
2016,11,12,12,25,378.00
2016,11,12,12,26,417.00
2016,11,12,12,27,508.80
2016,11,12,12,28,503.50
2016,11,12,12,29,497.00
2016,11,12,12,30,497.00
2016,11,12,12,31,507.70
2016,11,12,12,32,516.00
2016,11,12,12,33,487.20
2016,11,12,12,34,522.20
2016,11,12,12,35,529.00
2016,11,12,12,36,528.50
2016,11,12,12,37,526.70
2016,11,12,12,38,522.70
2016,11,12,12,39,519.40
2016,11,12,12,40,525.80
2016,11,12,12,41,527.70
2016,11,12,12,42,489.20
2016,11,12,12,43,501.00
2016,11,12,12,44,463.90
2016,11,12,12,45,459.00
2016,11,12,12,46,461.50
2016,11,12,12,47,483.00
2016,11,12,12,48,483.00
2016,11,12,12,49,474.20
2016,11,12,12,50,449.20
2016,11,12,12,51,412.90
2016,11,12,12,52,410.90
2016,11,12,12,53,439.60
2016,11,12,12,54,388.80
2016,11,12,12,55,327.20
2016,11,12,12,56,321.10
2016,11,12,12,57,238.30
2016,11,12,12,58,211.20
2016,11,12,12,59,177.50
2016,11,12,13,00,170.70
2016,11,12,13,01,158.40
2016,11,12,13,02,178.10
2016,11,12,13,03,163.40
2016,11,12,13,04,145.30
2016,11,12,13,05,141.60
2016,11,12,13,06,139.20
2016,11,12,13,07,137.10
2016,11,12,13,08,137.00
2016,11,12,13,09,137.40
2016,11,12,13,10,139.00
2016,11,12,13,11,139.70
2016,11,12,13,12,141.00
2016,11,12,13,13,141.60
2016,11,12,13,14,143.30
2016,11,12,13,15,144.00
2016,11,12,13,16,144.00
2016,11,12,13,17,144.00
2016,11,12,13,18,144.00
2016,11,12,13,19,144.00
2016,11,12,13,20,144.50
2016,11,12,13,21,146.00
2016,11,12,13,22,146.00
2016,11,12,13,23,146.00
2016,11,12,13,24,146.00
2016,11,12,13,25,146.00
2016,11,12,13,26,146.00
2016,11,12,13,27,144.40
2016,11,12,13,28,142.30
2016,11,12,13,29,140.90
2016,11,12,13,30,138.70
2016,11,12,13,31,136.20
2016,11,12,13,32,133.40
2016,11,12,13,33,130.00
2016,11,12,13,34,125.20
2016,11,12,13,35,121.30
2016,11,12,13,36,117.40
2016,11,12,13,37,113.80
2016,11,12,13,38,109.80
2016,11,12,13,39,105.60
2016,11,12,13,40,101.80
2016,11,12,13,41,99.70
2016,11,12,13,42,97.80
2016,11,12,13,43,96.40
2016,11,12,13,44,94.20
2016,11,12,13,45,92.10
2016,11,12,13,46,90.40
2016,11,12,13,47,88.70
2016,11,12,13,48,88.00
2016,11,12,13,49,88.00
2016,11,12,13,50,88.00
2016,11,12,13,51,88.00
2016,11,12,13,52,88.30
2016,11,12,13,53,90.00
2016,11,12,13,54,90.00
2016,11,12,13,55,90.40
2016,11,12,13,56,92.00
2016,11,12,13,57,93.00
2016,11,12,13,58,91.80
2016,11,12,13,59,91.00
2016,11,12,14,00,90.20
2016,11,12,14,01,88.30
2016,11,12,14,02,87.80
2016,11,12,14,03,82.50
2016,11,12,14,04,78.50
2016,11,12,14,05,76.10
2016,11,12,14,06,73.20
2016,11,12,14,07,71.10
2016,11,12,14,08,68.40
2016,11,12,14,09,67.00
2016,11,12,14,10,65.60
2016,11,12,14,11,63.40
2016,11,12,14,12,63.00
2016,11,12,14,13,62.00
2016,11,12,14,14,61.70
2016,11,12,14,15,59.50
2016,11,12,14,16,57.40
2016,11,12,14,17,55.30
2016,11,12,14,18,53.50
2016,11,12,14,19,51.90
2016,11,12,14,20,49.80
2016,11,12,14,21,47.50
2016,11,12,14,22,44.60
2016,11,12,14,23,42.20
2016,11,12,14,24,40.00
2016,11,12,14,25,38.70
2016,11,12,14,26,36.00
2016,11,12,14,27,32.70
2016,11,12,14,28,31.20
2016,11,12,14,29,29.00
2016,11,12,14,30,28.00
2016,11,12,14,31,26.70
2016,11,12,14,32,26.00
2016,11,12,14,33,25.20
2016,11,12,14,34,25.00
2016,11,12,14,35,25.00
2016,11,12,14,36,25.00
2016,11,12,14,37,25.00
2016,11,12,14,38,25.30
2016,11,12,14,39,26.00
2016,11,12,14,40,26.00
2016,11,12,14,41,26.00
2016,11,12,14,42,25.40
2016,11,12,14,43,25.00
2016,11,12,14,44,25.00
2016,11,12,14,45,25.00
2016,11,12,14,46,23.10
2016,11,12,14,47,23.00
2016,11,12,14,48,23.00
2016,11,12,14,49,22.40
2016,11,12,14,50,21.00
2016,11,12,14,51,21.00
2016,11,12,14,52,21.00
2016,11,12,14,53,21.00
2016,11,12,14,54,21.00
2016,11,12,14,55,21.00
2016,11,12,14,56,21.00
2016,11,12,14,57,21.00
2016,11,12,14,58,21.00
2016,11,12,14,59,21.00
2016,11,12,15,00,21.00
2016,11,12,15,01,21.00
2016,11,12,15,02,22.00
2016,11,12,15,03,23.00
2016,11,12,15,04,24.30
2016,11,12,15,05,23.60
2016,11,12,15,06,23.00
2016,11,12,15,07,23.00
2016,11,12,15,08,23.00
2016,11,12,15,09,23.00
2016,11,12,15,10,23.00
2016,11,12,15,11,23.60
2016,11,12,15,12,25.40
2016,11,12,15,13,28.70
2016,11,12,15,14,32.00
2016,11,12,15,15,30.70
2016,11,12,15,16,49.60
2016,11,12,15,17,69.20
2016,11,12,15,18,54.90
2016,11,12,15,19,75.30
2016,11,12,15,20,100.80
2016,11,12,15,21,105.00
2016,11,12,15,22,104.10
2016,11,12,15,23,100.40
2016,11,12,15,24,97.50
2016,11,12,15,25,85.00
2016,11,12,15,26,87.40
2016,11,12,15,27,86.70
2016,11,12,15,28,84.00
2016,11,12,15,29,85.80
2016,11,12,15,30,84.00
2016,11,12,15,31,82.40
2016,11,12,15,32,79.00
2016,11,12,15,33,78.10
2016,11,12,15,34,76.00
2016,11,12,15,35,76.00
2016,11,12,15,36,73.80
2016,11,12,15,37,70.80
2016,11,12,15,38,70.00
2016,11,12,15,39,67.60
2016,11,12,15,40,65.20
2016,11,12,15,41,64.90
2016,11,12,15,42,62.80
2016,11,12,15,43,61.60
2016,11,12,15,44,56.30
2016,11,12,15,45,46.00
2016,11,12,15,46,49.20
2016,11,12,15,47,56.70
2016,11,12,15,48,62.00
2016,11,12,15,49,63.00
2016,11,12,15,50,62.20
2016,11,12,15,51,62.00
2016,11,12,15,52,57.60
2016,11,12,15,53,50.30
2016,11,12,15,54,44.50
2016,11,12,15,55,39.10
2016,11,12,15,56,35.40
2016,11,12,15,57,32.50
2016,11,12,15,58,30.90
2016,11,12,15,59,28.70
2016,11,12,16,00,26.50
2016,11,12,16,01,26.00
2016,11,12,16,02,25.10
2016,11,12,16,03,22.90
2016,11,12,16,04,20.70
2016,11,12,16,05,17.50
2016,11,12,16,06,15.40
2016,11,12,16,07,13.30
2016,11,12,16,08,11.60
2016,11,12,16,09,11.00
2016,11,12,16,10,11.00
2016,11,12,16,11,9.50
2016,11,12,16,12,7.50
2016,11,12,16,13,7.00
2016,11,12,16,14,7.00
2016,11,12,16,15,7.00
2016,11,12,16,16,7.50
2016,11,12,16,17,9.00
2016,11,12,16,18,9.00
2016,11,12,16,19,9.00
2016,11,12,16,20,9.00
2016,11,12,16,21,7.70
2016,11,12,16,22,7.00
2016,11,12,16,23,5.50
2016,11,12,16,24,5.00
2016,11,12,16,25,5.00
2016,11,12,16,26,4.30
2016,11,12,16,27,0.00
2016,11,12,16,28,0.00
2016,11,12,16,29,0.00
2016,11,12,16,30,0.00
2016,11,12,16,31,0.00
2016,11,12,16,32,0.00
2016,11,12,16,33,0.00
2016,11,12,16,34,0.00
2016,11,12,16,35,0.00
2016,11,12,16,36,0.00
2016,11,12,16,37,0.00
2016,11,12,16,38,0.00
2016,11,12,16,39,0.00
2016,11,12,16,40,0.00
2016,11,12,16,41,0.00
2016,11,12,16,42,0.00
2016,11,12,16,43,0.00
2016,11,12,16,44,0.00
2016,11,12,16,45,0.00
2016,11,12,16,46,0.00
2016,11,12,16,47,0.00
2016,11,12,16,48,0.00
2016,11,12,16,49,0.00
2016,11,12,16,50,0.00
2016,11,12,16,51,0.00
2016,11,12,16,52,0.00
2016,11,12,16,53,0.00
2016,11,12,16,54,0.00
2016,11,12,16,55,0.00
2016,11,12,16,56,0.00
2016,11,12,16,57,0.00
2016,11,12,16,58,0.00
2016,11,12,16,59,0.00
2016,11,12,17,00,0.00
2016,11,12,17,01,0.00
2016,11,12,17,02,0.00
2016,11,12,17,03,0.00
2016,11,12,17,04,0.00
2016,11,12,17,05,0.00
2016,11,12,17,06,0.00
2016,11,12,17,07,0.00
2016,11,12,17,08,0.00
2016,11,12,17,09,0.00
2016,11,12,17,10,0.00
2016,11,12,17,11,0.00
2016,11,12,17,12,0.00
2016,11,12,17,13,0.00
2016,11,12,17,14,0.00
2016,11,12,17,15,0.00
2016,11,12,17,16,0.00
2016,11,12,17,17,0.00
2016,11,12,17,18,0.00
2016,11,12,17,19,0.00
2016,11,12,17,20,0.00
2016,11,12,17,21,0.00
2016,11,12,17,22,0.00
2016,11,12,17,23,0.00
2016,11,12,17,24,0.00
2016,11,12,17,25,0.00
2016,11,12,17,26,0.00
2016,11,12,17,27,0.00
2016,11,12,17,28,0.00
2016,11,12,17,29,0.00
2016,11,12,17,30,0.00